Location: Newark
(41.6500°N, 71.4833°W)
Time: 05:34:04
(UTC+00:00)

Tiros 1 despin weight - Visible Passes

Search period start: 24 January 2020 00:00
Search period end: 03 February 2020 00:00
Orbit: 594 x 642 km, 48.2° (Epoch: 23 January)

Date Brightness Start Highest point End Pass type
(mag) Time Alt. Az. Time Alt. Az. Time Alt. Az.
24 Jan ? 00:08:20 10° WSW 00:10:28 13° SW 00:12:37 10° SSW visible
24 Jan ? 22:41:44 10° WNW 22:45:58 35° SW 22:50:14 10° SSE visible
25 Jan ? 22:58:56 10° W 23:02:15 19° SW 23:05:34 10° S visible
01 Feb ? 11:24:43 10° SE 11:25:35 10° SE 11:26:27 10° ESE visible
